Weather History for KVCB - August, 2012

Change the Weather History Date:

Monday, August 13, 2012

  Actual Average (KSUU) Record (KSUU)
Temperature  
Mean Temperature 86 °F -  
Max Temperature 106 °F 85 °F - (-1)
Min Temperature 66 °F 56 °F - (-1)
Cooling Degree Days 20    
Growing Degree Days 36 (Base 50)    
Moisture  
Dew Point 48 °F    
Average Humidity 31    
Maximum Humidity 59    
Minimum Humidity 11    
Precipitation  
Precipitation 0.00 in - - ()
Sea Level Pressure  
Sea Level Pressure 29.75 in    
Wind  
Wind Speed 3 mph (South)    
Max Wind Speed 9 mph    
Max Gust Speed -    
Visibility 10 miles    
Events      
Averages and records for this station are not official NWS values.
T = Trace of Precipitation, MM = Missing Value Source: NWS Daily Summary

Daily Weather History Graph

Daily Weather History Graph

Search for Another Location

Airport or City:

Trip Planner

Search our weather history database for the weather conditions in past years. The results will help you decide how hot, cold, wet, or windy it might be!

Date:

Astronomy

Aug. 13, 2012 Rise Set
Actual Time 6:21 AM PDT 8:03 PM PDT
Civil Twilight 5:52 AM PDT 8:31 PM PDT
Nautical Twilight 5:18 AM PDT 9:05 PM PDT
Astronomical Twilight 4:41 AM PDT 9:42 PM PDT
Moon 2:30 AM PDT (8/13) 5:17 PM PDT (8/13)
Length of Visible Light 14h 38m
Length of Day
13h 42m
Waning Crescent, 15% of the Moon is Illuminated
Aug 13
Waning Crescent
Aug 17
New
Aug 24
First Quarter
Aug 31
Full
Sep 8
Last Quarter

Hourly Weather History & Observations

Time (PDT) Temp. Heat Index Dew Point Humidity Pressure Visibility Wind Dir Wind Speed Gust Speed Precip Events Conditions
12:53 AM 75.9 °F - 46.0 °F 35% 29.75 in 10.0 mi SSW 3.5 mph - N/A   Clear
1:53 AM 75.0 °F - 44.1 °F 33% 29.74 in 10.0 mi Calm Calm - N/A   Clear
2:53 AM 69.1 °F - 48.9 °F 49% 29.75 in 10.0 mi Calm Calm - N/A   Clear
3:53 AM 66.9 °F - 48.0 °F 51% 29.75 in 10.0 mi Calm Calm - N/A   Clear
4:53 AM 66.0 °F - 51.1 °F 59% 29.77 in 10.0 mi East 3.5 mph - N/A   Clear
5:53 AM 69.1 °F - 50.0 °F 51% 29.77 in 10.0 mi Calm Calm - N/A   Clear
6:53 AM 66.9 °F - 51.1 °F 57% 29.80 in 10.0 mi Calm Calm - N/A   Clear
7:53 AM 73.0 °F - 51.1 °F 46% 29.81 in 10.0 mi Calm Calm - N/A   Clear
8:53 AM 78.1 °F - 52.0 °F 40% 29.81 in 10.0 mi Calm Calm - N/A   Clear
9:53 AM 82.9 °F - 52.0 °F 34% 29.81 in 10.0 mi Calm Calm - N/A   Clear
10:53 AM 86.0 °F - 52.0 °F 31% 29.81 in 10.0 mi East 3.5 mph - N/A   Clear
11:53 AM 91.0 °F 88.5 °F 53.1 °F 27% 29.81 in 10.0 mi Variable 3.5 mph - N/A   Clear
12:53 PM 96.1 °F - 51.1 °F 22% 29.79 in 10.0 mi Variable 4.6 mph - N/A   Clear
1:53 PM 98.1 °F - 48.9 °F 19% 29.77 in 10.0 mi South 5.8 mph - N/A   Clear
2:53 PM 102.0 °F - 44.1 °F 14% 29.74 in 10.0 mi South 4.6 mph - N/A   Clear
3:53 PM 105.1 °F - 45.0 °F 13% 29.71 in 10.0 mi South 6.9 mph - N/A   Clear
4:53 PM 105.1 °F - 39.9 °F 11% 29.70 in 10.0 mi South 8.1 mph - N/A   Clear
5:53 PM 105.1 °F - 41.0 °F 11% 29.70 in 10.0 mi SSW 9.2 mph - N/A   Clear
6:53 PM 100.0 °F - 48.0 °F 17% 29.69 in 10.0 mi SSW 6.9 mph - N/A   Clear
7:53 PM 95.0 °F - 51.1 °F 22% 29.70 in 10.0 mi South 4.6 mph - N/A   Clear
8:53 PM 91.0 °F - 50.0 °F 24% 29.70 in 10.0 mi SW 6.9 mph - N/A   Clear
9:53 PM 88.0 °F - 48.0 °F 25% 29.70 in 10.0 mi Calm Calm - N/A   Clear
10:53 PM 88.0 °F - 48.0 °F 25% 29.70 in 10.0 mi SW 4.6 mph - N/A   Clear
11:53 PM 77.0 °F - 48.9 °F 37% 29.70 in 10.0 mi Calm Calm - N/A   Clear